Regional Weather Roundup
Issued by NWS Charleston, SC

Current Version | Previous Version | Graphics & Text | Print | Product List | Glossary On
Versions: 1 2 3 4 5 6 7 8 9 10 11 12 13 14 15 16 17 18 19 20 21 22 23 24 25 26 27 28 29 30 31 32 33 34 35 36 37 38 39 40 41 42 43 44 45 46 47 48 49 50
000 ASUS42 KCHS 232227 RWRCHS REGIONAL WEATHER ROUNDUP NATIONAL WEATHER SERVICE CHARLESTON SC 500 PM EST MON JAN 23 2017 NOTE: "FAIR" INDICATES FEW OR NO CLOUDS BELOW 12,000 FEET WITH NO SIGNIFICANT WEATHER AND/OR OBSTRUCTIONS TO VISIBILITY. NOT ALL STATIONS ARE QUALITY CONTROLLED. USE DATA WITH CAUTION... ESPECIALLY DEWPOINT OBSERVATIONS. SCZ027-030-031-034>040-042>050-232300- ...SOUTHEAST SOUTH CAROLINA... CITY SKY/WX TMP DP RH WIND PRES REMARKS N CHARLESTON MOCLDY 59 48 67 W10 29.33R WATERFRONT PRK N/A 58 50 74 W6 29.32R MOUNT PLEASANT CLOUDY 57 50 77 W6 29.34R JOHNS ISLAND FAIR 59 50 72 W12 29.35R PINOPOLIS N/A 57 52 82 W8 29.24R MONCKS CORNER CLOUDY 55 48 76 CALM 29.34R SUMMERVILLE CLOUDY 59 52 77 W7 29.35R BEAUFORT MCAS PTCLDY 60 50 69 W12 29.36R BEAUFORT ARPT FAIR 59 50 72 W8 29.36R HILTON HEAD IS MOCLDY 61 52 72 W8G17 29.38R WALTERBORO MOCLDY 59 50 72 W7 29.37R ALLENDALE MOCLDY 61 52 72 VRB5 29.35R ...SOUTHERN MIDLANDS AND PEE DEE... CITY SKY/WX TMP DP RH WIND PRES REMARKS GEORGETOWN CLOUDY 55 48 76 W7 29.33R KINGSTREE CLOUDY 55 46 71 W10 29.33R ORANGEBURG CLOUDY 58 49 72 W10 29.34R BARNWELL CLOUDY 63 54 72 W3 29.36R AIKEN MOCLDY 57 50 77 NW3 29.39R MANNING CLOUDY 55 46 71 NW5 29.33R COLUMBIA MOCLDY 59 48 67 W12 29.33R SUMTER CLOUDY 55 48 76 W6 29.32R FLORENCE CLOUDY 56 49 77 W9 29.31R MYRTLE BEACH MOCLDY 57 46 67 NW8 29.31R N MYRTLE BEACH LGT RAIN 54 51 90 W5 29.28R $$ GAZ063-065-086>088-099>101-113>116-118-119-134>141-150-232300- ...SOUTHEAST GEORGIA... CITY SKY/WX TMP DP RH WIND PRES REMARKS SAVANNAH ARPT MOCLDY 60 52 74 W15 29.38R HUNTER AAF MOCLDY 58 58 99 W13 29.36R FORT STEWART MOCLDY 63 52 67 W15G25 29.39R STATESBORO MOCLDY 63 53 71 W13G22 29.40R SYLVANIA MOCLDY N/A N/A N/A NW17G25 29.39R CLAXTON MOCLDY 63 63 100 W14G23 29.41R ...CSRA...CENTRAL AND FAR SOUTHEAST GEORGIA... CITY SKY/WX TMP DP RH WIND PRES REMARKS THOMSON CLEAR 64 53 68 NW7 29.43R AUGUSTA-BUSH CLOUDY 66 49 54 NW7 29.35R AUGUSTA-DANIEL CLOUDY 64 48 56 NW8 29.36R SWAINSBORO MOCLDY 61 50 67 MISG 29.44R VIDALIA CLOUDY 61 54 77 W9G18 29.45R EASTMAN CLOUDY 61 41 48 W10G18 29.53R HAZLEHURST CLOUDY 61 53 74 W13G23 29.48R ALMA CLOUDY 61 52 72 W14G22 29.48R WAYCROSS CLOUDY 62 57 83 W15G21 29.51R JESUP CLOUDY 63 50 63 NW10G26 29.46R BAXLEY CLOUDY 61 54 77 W14G22 29.47R BRUNSWICK CLOUDY 63 55 77 W13G22 29.46R SAINT SIMONS CLOUDY 62 54 74 W17G26 29.44R $$ SCZ027-028-034-036>038-045-046-048>050-GAZ119-141-232300- ...LAKE AND SUPPLEMENTAL COASTAL OBSERVATIONS... STATION/POSITION TIME TEMP WIND PRES WAVE SWELL AIR SEA DIR/SP/G HT/PER HT/PER/DIR (UTC) (F) (DEG/KT/KT) (MB) (FT/S) (FT/S/D) WINYAH BAY 2145 57 280/ 6 992.0R LAKE MURRAY 2150 58 290/ 7/ 11 993.2R ACE BASIN NERRS 2130 58 260/ 3 993.0S FORT PULASKI 2200 60 59 290/ 11/ 13 995.0 SAPELO ISLAND 2200 62 270/ 16 996.0 $$ ANZ835-935-AMZ111-154-330-350-352-354-370-450-454-472-232300- ...C-MAN AND BUOY OBSERVATIONS... STATION/POSITION TIME TEMP WIND PRES WAVE SWELL AIR SEA DIR/SP/G HT/PER HT/PER/DIR (UTC) (F) (DEG/KT/KT) (MB) (FT/S) (FT/S/D) BUOY 41004 2150 60 69 280/ 21/ 25 992.0R 9/ 8 7/190/ 8 BUOY 41008 2150 61 60 260/ 21/ 27 994.7R 4/ 5 2/110/14 FOLLY BEACH CMAN 2200 59 280/ 7/ 10 994.0R CAPERS NEARSHORE 2108 57 57 280/ 14/ 17 992.2R FRIPP NEARSHORE 2208 59 58 290/ 14/ 17 994.1R STATION/POSITION TIME TEMP WIND PRES WAVE SWELL AIR SEA DIR/SP/G HT/PER HT/PER/DIR (UTC) (F) (DEG/KT/KT) (MB) (FT/S) (FT/S/D) 5E ST. MARYS GA 2200 62 N/A 4/ 4 2/ 80/14 FRYING PAN BUOY 2210 59 70 260/ 21/ 27 991.1 BUOY 41025 2150 62 76 10/ 10/ 12 989.0F 7/ 9 7/170/ 9 CAPE LOOKOUT NC 2200 57 40/ 6/ 6 989.5F BUOY 41002 2150 71 71 230/ 21/ 27 991.7R 13/10 11/210/10 BUOY 41010 NOT AVBL ST AUGUSTINE FL 2200 65 64 280/ 10/ 12 999.6R $$

USA.gov is the U.S. government's official web portal to all federal, state and local government web resources and services.